Location: Bakhuizen
(52.8696°N, 5.4575°E)
Time: 14:03:26
(UTC+00:00)

SPOT 3 Rocket - Pass Details

Date: 11 May 2021
Orbit: 779 x 794 km, 98.7° (Epoch: 19 June)

Event Time Altitude Azimuth Distance (km) Brightness Sun altitude
Exits shadow 19:56:53 - 159° (SSE) 3,115 6.1 -4.9°
Reaches altitude 10° 19:58:50 10° 159° (SSE) 2,335 5.5 -5.2°
Maximum altitude 20:03:59 83° 72° (ENE) 795 3.6 -5.8°
Drops below altitude 10° 20:09:11 10° 346° (NNW) 2,347 7.0 -6.4°
Sets 20:11:30 0° 345° (NNW) 3,279 7.8 -6.6°
